TimeCDT,TemperatureF,Dew PointF,Humidity,Sea Level PressureIn,VisibilityMPH,Wind Direction,Wind SpeedMPH,Gust SpeedMPH,PrecipitationIn,Events,Conditions,WindDirDegrees,DateUTC
12:51 AM,80.1,73.0,79,29.99,10.0,SSE,11.5,-,N/A,,Partly Cloudy,150,2012-10-04 05:51:00
1:32 AM,78.8,73.4,83,30.00,10.0,SSE,9.2,-,N/A,,Mostly Cloudy,160,2012-10-04 06:32:00
1:51 AM,79.0,73.0,82,30.00,10.0,SSE,10.4,-,N/A,,Mostly Cloudy,160,2012-10-04 06:51:00
2:03 AM,78.8,73.4,83,30.00,10.0,SSE,9.2,-,N/A,,Scattered Clouds,160,2012-10-04 07:03:00
2:51 AM,78.1,73.0,84,30.00,10.0,SSE,9.2,-,N/A,,Partly Cloudy,160,2012-10-04 07:51:00
3:51 AM,78.1,73.0,84,30.00,10.0,SSE,8.1,-,N/A,,Partly Cloudy,160,2012-10-04 08:51:00
4:51 AM,77.0,73.0,88,30.00,10.0,SSE,8.1,-,N/A,,Partly Cloudy,150,2012-10-04 09:51:00
5:51 AM,75.9,73.0,91,30.01,10.0,SSE,8.1,-,N/A,,Partly Cloudy,150,2012-10-04 10:51:00
6:51 AM,75.9,73.0,91,30.01,10.0,SSE,9.2,-,N/A,,Partly Cloudy,150,2012-10-04 11:51:00
7:51 AM,77.0,73.9,90,30.02,9.0,SE,8.1,-,N/A,,Partly Cloudy,140,2012-10-04 12:51:00
8:51 AM,81.0,75.0,82,30.04,10.0,SSE,15.0,-,N/A,,Partly Cloudy,150,2012-10-04 13:51:00
9:51 AM,84.2,73.4,70,30.06,10.0,South,19.6,-,N/A,,Scattered Clouds,170,2012-10-04 14:51:00
9:59 AM,86.0,73.4,66,30.06,10.0,South,23.0,28.8,N/A,,Mostly Cloudy,170,2012-10-04 14:59:00
10:33 AM,87.8,73.4,62,30.07,10.0,SSE,24.2,29.9,N/A,,Scattered Clouds,150,2012-10-04 15:33:00
10:51 AM,87.8,73.4,62,30.07,10.0,SSE,24.2,31.1,N/A,,Scattered Clouds,160,2012-10-04 15:51:00
11:51 AM,90.0,73.0,57,30.07,10.0,SSE,20.7,28.8,N/A,,Scattered Clouds,160,2012-10-04 16:51:00
12:51 PM,91.0,73.0,55,30.06,10.0,SSE,20.7,28.8,N/A,,Scattered Clouds,150,2012-10-04 17:51:00
1:51 PM,91.9,73.0,54,30.04,10.0,SSE,18.4,26.5,N/A,,Partly Cloudy,150,2012-10-04 18:51:00
2:51 PM,91.0,73.0,55,30.03,10.0,SE,20.7,-,N/A,,Scattered Clouds,140,2012-10-04 19:51:00
3:51 PM,90.0,73.0,57,30.02,10.0,SSE,24.2,31.1,N/A,,Scattered Clouds,150,2012-10-04 20:51:00
4:51 PM,89.1,72.0,57,30.02,10.0,SSE,24.2,29.9,N/A,,Scattered Clouds,150,2012-10-04 21:51:00
5:51 PM,87.1,72.0,61,30.03,10.0,SSE,23.0,28.8,N/A,,Scattered Clouds,150,2012-10-04 22:51:00
6:51 PM,84.9,71.1,63,30.04,10.0,SE,23.0,31.1,N/A,,Partly Cloudy,140,2012-10-04 23:51:00
7:51 PM,82.9,71.1,67,30.05,10.0,SSE,16.1,-,N/A,,Partly Cloudy,150,2012-10-05 00:51:00
8:51 PM,82.0,71.1,69,30.07,10.0,SSE,13.8,-,N/A,,Partly Cloudy,150,2012-10-05 01:51:00
9:51 PM,80.6,71.6,74,30.08,10.0,SSE,11.5,-,N/A,,Clear,150,2012-10-05 02:51:00
10:51 PM,79.0,71.1,77,30.08,10.0,SSE,12.7,-,N/A,,Clear,160,2012-10-05 03:51:00
11:51 PM,77.0,71.1,82,30.07,10.0,SSE,8.1,-,N/A,,Clear,160,2012-10-05 04:51:00